Flight Track Log - Related Links

Times and Time Zones

All times are in EDT time to prevent confusion due to time zone crossing. See the SWA920 flight status page for this flight to view local times or setup timezone preferences in your user account.

Time Position Orientation Groundspeed Altitude Reporting Facility
EDT Latitude Longitude Course Direction KTS MPH feet Rate Location/Type
Wed 08:04:16 PM 32.8950 -79.9808 35° Northeast 207 238 3,800  Level Jacksonville Center
Wed 08:05:16 PM 32.9564 -79.9292 35° Northeast 230 265 6,200 3,000 Climbing Jacksonville Center
Wed 08:06:16 PM 33.0358 -79.9342 357° North 249 287 9,800 3,000 Climbing Jacksonville Center
Wed 08:07:16 PM 33.1275 -79.9286 North 281 323 12,200 3,000 Climbing Jacksonville Center
Wed 08:08:16 PM 33.2178 -79.8658 30° Northeast 321 369 15,800 3,150 Climbing Jacksonville Center
Wed 08:09:16 PM 33.3019 -79.7986 34° Northeast 376 433 18,500 2,650 Climbing Jacksonville Center
Wed 08:10:16 PM 33.3981 -79.7256 32° Northeast 387 445 21,100 2,550 Climbing Jacksonville Center
Wed 08:11:16 PM 33.4983 -79.6497 32° Northeast 407 468 23,600 2,450 Climbing Jacksonville Center
Wed 08:12:16 PM 33.5986 -79.5711 33° Northeast 418 481 26,000 1,700 Climbing Jacksonville Center
Wed 08:13:16 PM 33.7008 -79.4925 33° Northeast 430 495 27,000 600 Climbing Jacksonville Center
Wed 08:14:16 PM 33.8053 -79.4186 30° Northeast 430 495 27,200 1,000 Climbing Jacksonville Center
Wed 08:15:16 PM 33.9075 -79.3394 33° Northeast 430 495 29,000 1,600 Climbing Jacksonville Center
Wed 08:16:16 PM 34.0178 -79.2572 32° Northeast 438 504 30,400 1,672 Climbing Jacksonville Center
Wed 08:18:19 PM 34.2569 -79.0719 33° Northeast 488 562 34,100 1,770 Climbing Washington Center
Wed 08:19:19 PM 34.3678 -78.9861 33° Northeast 483 556 35,800 1,700 Climbing Washington Center
Wed 08:20:19 PM 34.4786 -78.9000 33° Northeast 478 550 37,500 1,400 Climbing Washington Center
Wed 08:21:19 PM 34.5786 -78.8308 30° Northeast 472 543 38,600 750 Climbing Washington Center
Wed 08:22:19 PM 34.6928 -78.7722 23° Northeast 448 516 39,000 200 Climbing Washington Center
Wed 08:23:19 PM 34.8092 -78.7136 22° Northeast 442 509 39,000  Level Washington Center
Wed 08:24:19 PM 34.9297 -78.6547 22° Northeast 442 509 39,000  Level Washington Center
Wed 08:25:19 PM 35.0458 -78.5958 23° Northeast 442 509 39,000  Level Washington Center
Wed 08:26:19 PM 35.1622 -78.5367 23° Northeast 447 514 39,000  Level Washington Center
Wed 08:27:19 PM 35.2783 -78.4772 23° Northeast 447 514 39,000  Level Washington Center
Wed 08:28:19 PM 35.3989 -78.4128 24° Northeast 454 522 39,000  Level Washington Center
Wed 08:29:19 PM 35.5339 -78.3436 23° Northeast 466 536 39,000  Level Washington Center
Wed 08:30:19 PM 35.6542 -78.2864 21° North 466 536 39,000  Level Washington Center
Wed 08:31:19 PM 35.7722 -78.2289 22° Northeast 456 525 39,000 -50 Level Washington Center
Wed 08:32:19 PM 35.8906 -78.1711 22° Northeast 456 525 38,900 -550 Descending Washington Center
Wed 08:33:19 PM 36.0128 -78.1058 23° Northeast 461 531 37,900 -1,500 Descending Washington Center
Wed 08:34:19 PM 36.1331 -78.0456 22° Northeast 461 531 35,900 -2,450 Descending Washington Center
Wed 08:35:19 PM 36.2533 -77.9822 23° Northeast 461 531 33,000 -3,050 Descending Washington Center
Wed 08:36:19 PM 36.3733 -77.9189 23° Northeast 461 531 29,800 -2,000 Descending Washington Center
Wed 08:37:19 PM 36.4808 -77.8600 24° Northeast 461 531 29,000 -400 Descending Washington Center
Wed 08:38:19 PM 36.6053 -77.7964 22° Northeast 466 536 29,000 -200 Level Washington Center
Wed 08:39:19 PM 36.7275 -77.7325 23° Northeast 466 536 28,600 -500 Descending Washington Center
Wed 08:40:19 PM 36.8581 -77.6633 23° Northeast 483 556 28,000 -800 Descending Washington Center
Wed 08:41:19 PM 36.9842 -77.5967 23° Northeast 488 562 27,000 -550 Descending Washington Center
Wed 08:42:19 PM 37.1125 -77.5347 21° North 488 562 26,900 -550 Descending Washington Center
Wed 08:43:19 PM 37.2425 -77.4936 14° North 482 555 25,900 -1,050 Descending Washington Center
Wed 08:44:19 PM 37.3725 -77.4553 13° North 477 549 24,800 -1,050 Descending Washington Center
Wed 08:45:19 PM 37.5003 -77.4136 15° North 471 542 23,800 -900 Descending Washington Center
Wed 08:46:19 PM 37.6261 -77.3775 13° North 471 542 23,000 -400 Descending Washington Center
Wed 08:47:19 PM 37.7497 -77.3358 15° North 466 536 23,000 -50 Level Washington Center
Wed 08:48:19 PM 37.8733 -77.2964 14° North 461 531 22,900 -600 Descending Washington Center
Wed 08:49:19 PM 37.9989 -77.2572 14° North 461 531 21,800 -1,050 Descending Washington Center
Wed 08:50:19 PM 38.1247 -77.2231 12° North 456 525 20,800 -1,750 Descending Washington Center
Wed 08:51:19 PM 38.2419 -77.1858 14° North 446 513 18,300 -2,650 Descending Washington Center
Wed 08:52:19 PM 38.3569 -77.1486 14° North 431 496 15,500 -1,900 Descending Washington Center
Wed 08:53:19 PM 38.4686 -77.0714 28° Northeast 409 471 14,500 -2,250 Descending Washington Center
Wed 08:54:19 PM 38.5431 -76.9400 54° Northeast 409 471 11,000 -2,150 Descending Washington Center
Wed 08:55:19 PM 38.6192 -76.8486 43° Northeast 401 461 10,200 -800 Descending Washington Center
Wed 08:56:19 PM 38.6886 -76.7672 42° Northeast 362 417 9,400 -1,100 Descending Washington Center
Wed 08:57:19 PM 38.7375 -76.6722 57° Northeast 330 380 8,000 -1,450 Descending Washington Center
Wed 08:58:19 PM 38.7822 -76.5689 61° Northeast 317 365 6,500 -1,520 Descending Washington Center
Wed 08:58:34 PM 38.8000 -76.5500 40° Northeast 317 365 6,100 -960 Descending Potomac TRACON
Wed 08:59:34 PM 38.8667 -76.5500 360° North 265 305 5,300 -900 Descending Potomac TRACON
Wed 09:00:34 PM 38.9333 -76.5833 339° North 265 305 4,300 -684 Descending Potomac TRACON
Wed 09:01:28 PM 38.9833 -76.6333 322° Northwest 239 275 4,000 -150 Descending Potomac TRACON
Wed 09:02:34 PM 39.0167 -76.7000 303° West 235 270 4,000 -476 Level Potomac TRACON
Wed 09:03:34 PM 39.0667 -76.7500 322° Northwest 232 267 3,000 -1,200 Descending Potomac TRACON
Wed 09:04:34 PM 39.1333 -76.7667 349° North 228 262 1,600 -950 Descending Potomac TRACON
Wed 09:05:34 PM 39.1833 -76.7500 14° North 178 205 1,100 -579 Descending Potomac TRACON
Wed 09:06:28 PM 39.1833 -76.7167 90° East 152 175 500 -667 Descending Potomac TRACON
Wed 09:08:00 PM 39.1667 -76.6667 113° Southeast  Level FlightAware Approximate
Wed 09:15:00 PM 39.1754 -76.6683 113° Southeast  Level Estimated
Wed 09:16:00 PM 39.1754 -76.6683 113° Southeast  Level Estimated
Wed 09:17:00 PM 39.1754 -76.6683 113° Southeast  Level Estimated

Login

Don't have an account? Register now (free) for customized features, flight alerts, and more!